Printer-friendly version

IAU Minor Planet Center

Minor Planet Center

MPEC 2006-J41 : 2006 JU41

The following Minor Planet Electronic Circular may be linked-to from your own Web pages, but must not otherwise be redistributed electronically.


Read MPEC 2006-J40 Read MPEC 2006-J42


M.P.E.C. 2006-J41                                Issued 2006 May  9, 21:28 UT

     The Minor Planet Electronic Circulars contain information on unusual
         minor planets and routine data on comets.  They are published
   on behalf of Commission 20 of the International Astronomical Union by the
          Minor Planet Center, Smithsonian Astrophysical Observatory,
                          Cambridge, MA 02138, U.S.A.

                  Supported in part by the Brinson Foundation
                  Supported in part by the TABASGO Foundation
             Prepared using the Tamkin Foundation Computer Network

                              MPC@CFA.HARVARD.EDU
          URL http://cfa-www.harvard.edu/iau/mpc.html  ISSN 1523-6714

                                   2006 JU41

Observations:
     K06J41U* C2006 05 07.14220 13 14 38.72 -01 45 13.6          19.9 V EJ041G96
     K06J41U  C2006 05 07.14919 13 14 38.11 -01 45 15.5          20.0 V EJ041G96
     K06J41U  C2006 05 07.15641 13 14 37.50 -01 45 17.4          20.2 V EJ041G96
     K06J41U  C2006 05 07.16349 13 14 36.92 -01 45 19.5          20.1 V EJ041G96
     K06J41U  C2006 05 07.20272 13 14 33.50 -01 45 29.7          20.3 V EJ041G96
     K06J41U  C2006 05 07.20627 13 14 33.25 -01 45 30.1          19.9 V EJ041G96
     K06J41U  C2006 05 07.20982 13 14 32.92 -01 45 31.2          20.1 V EJ041G96
     K06J41U  C2006 05 07.21345 13 14 32.60 -01 45 32.0          20.1 V EJ041G96
     K06J41U  C2006 05 08.16626 13 13 16.75 -01 49 45.0          19.3 V EJ041G96
     K06J41U  C2006 05 08.17293 13 13 16.17 -01 49 46.8          19.9 V EJ041G96
     K06J41U  C2006 05 08.17846 13 13 15.66 -01 49 49.7          20.8 R EJ041682
     K06J41U  C2006 05 08.17940 13 13 15.63 -01 49 48.3          19.6 V EJ041G96
     K06J41U  C2006 05 08.18587 13 13 15.09 -01 49 50.3          19.4 V EJ041G96
     K06J41U  C2006 05 08.20034 13 13 13.86 -01 49 55.1          20.7 R EJ041682
     K06J41U  C2006 05 09.16655 13 11 58.44 -01 54 31.2          19.2 V EJ041G96
     K06J41U  C2006 05 09.17271 13 11 57.94 -01 54 33.1          19.5 V EJ041G96
     K06J41U  C2006 05 09.17903 13 11 57.40 -01 54 34.6          19.3 V EJ041G96
     K06J41U  C2006 05 09.18736 13 11 56.72 -01 54 37.2          19.2 V EJ041G96
     K06J41U  C2006 05 09.19366 13 11 56.22 -01 54 39.1          19.2 V EJ041G96
     K06J41U  C2006 05 09.19978 13 11 55.71 -01 54 41.2          20.0 V EJ041G96

Observer details:
682 Kanab.  Observer E. Sheridan.  0.36-m f/5.5 Schmidt-Cassegrain + CCD.
G96 Mt. Lemmon Survey.  Observer A. D. Grauer.  Measurers E. C. Beshore,
    E. J. Christensen, G. J. Garradd, A. R. Gibbs, A. D. Grauer, R. E. Hill,
    R. A. Kowalski, S. M. Larson, R. H. McNaught.  1.5-m reflector + CCD.

Orbital elements:
2006 JU41                                                Earth MOID = 0.2326 AU
Epoch 2006 Mar. 6.0 TT = JDT 2453800.5                  MPC
M 308.92030              (2000.0)            P               Q
n   0.31925275     Peri.  236.57770     +0.31200622     +0.94411955
a   2.1202136      Node    51.96527     -0.82075007     +0.32417750
e   0.4262428      Incl.    7.75313     -0.47856184     +0.05955858
P   3.09           H   19.0           G   0.15           U   8
Residuals in seconds of arc
060507 G96  0.0   0.3+    060507 G96  0.2-  0.1+    060509 G96  0.1-  0.0
060507 G96  0.2-  0.2+    060508 G96  0.3+  0.0     060509 G96  0.0   0.1-
060507 G96  0.1-  0.1+    060508 G96  0.0   0.0     060509 G96  0.3-  0.3+
060507 G96  0.3+  0.2-    060508 682  0.7-  0.4-    060509 G96  0.2-  0.2+
060507 G96  0.5-  0.3-    060508 G96  0.1+  0.3+    060509 G96  0.1+  0.1+
060507 G96  0.3+  0.2+    060508 G96  0.2+  0.1+    060509 G96  0.1+  0.1-
060507 G96  0.1-  0.0     060508 682  0.2-  0.3+

Ephemeris:
2006 JU41                a,e,i = 2.12, 0.43, 8                   q = 1.2165
Date    TT    R. A. (2000) Decl.     Delta      r     Elong.  Phase     V
2006 05 05    13 17.58   -01 36.8    0.580    1.550   153.6    16.8    19.7
2006 05 15    13 05.03   -02 29.3    0.566    1.497   141.8    24.7    19.8
2006 05 25    12 56.51   -03 57.7    0.564    1.447   130.9    31.9    19.9
2006 06 04    12 53.28   -06 00.8    0.570    1.399   121.4    38.2    20.0
2006 06 14    12 55.70   -08 34.9    0.581    1.355   113.4    43.5    20.2
2006 06 24    13 03.60   -11 35.4    0.592    1.316   106.8    47.7    20.3
2006 07 04    13 16.81   -14 58.0    0.604    1.282   101.5    51.0    20.3
2006 07 14    13 35.13   -18 37.1    0.615    1.254    97.4    53.5    20.4
2006 07 24    13 58.51   -22 25.4    0.625    1.233    94.4    55.2    20.4
2006 08 03    14 27.17   -26 13.4    0.637    1.221    92.4    56.1    20.5
2006 08 13    15 01.25   -29 47.8    0.651    1.217    91.3    56.4    20.5
2006 08 23    15 40.67   -32 51.9    0.669    1.221    90.8    55.9    20.6
2006 09 02    16 24.89   -35 08.1    0.694    1.233    90.9    54.9    20.7
2006 09 12    17 12.40   -36 20.8    0.728    1.254    91.1    53.4    20.8
2006 09 22    18 00.98   -36 22.3    0.773    1.282    91.4    51.5    20.9
2006 10 02    18 48.28   -35 15.5    0.829    1.316    91.5    49.5    21.0
2006 10 12    19 32.47   -33 12.4    0.897    1.355    91.1    47.4    21.2
2006 10 22    20 12.67   -30 28.9    0.979    1.399    90.3    45.3    21.4
2006 11 01    20 48.85   -27 20.4    1.072    1.447    88.9    43.3    21.6
2006 11 11    21 21.36   -23 59.3    1.177    1.497    86.9    41.3    21.8

Gareth V. Williams           (C) Copyright 2006 MPC           M.P.E.C. 2006-J41

Read MPEC 2006-J40 Read MPEC 2006-J42


Our Web policy. Index to the CBAT/MPC/ICQ pages.


Valid HTML 4.01!